{"data":{"norad_id":65856,"epoch":"2026-05-25T02:59:40.031232Z","epoch_age_seconds":60891,"freshness":"FRESH","line1":"1 65856U 25223C   26145.12476888  .00023136  00000+0  69398-3 0  9998","line2":"2 65856  53.1590 298.7604 0001619  92.8421 267.2767 15.34389807 35917","mean_motion":15.34389807,"eccentricity":0.0001619,"inclination_deg":53.159,"raan_deg":298.7604,"arg_perigee_deg":92.8421,"mean_anomaly_deg":267.2767,"bstar":0.00069398,"rev_number":3591,"period_min":93.848381514959,"perigee_km":461.6259991791,"apogee_km":463.84107305869,"semimajor_km":6840.8705361189,"source":"CELESTRAK","updated_at":"2026-05-25T13:38:20.948576Z"}}